Location: Fredericksburg
(30.2750°N, 98.8720°W)
Time: 07:46:25
(UTC-05:00)

ISS - All Passes

Search period start: 19 October 2017 00:00
Search period end: 29 October 2017 00:00
Orbit: 401 x 408 km, 51.6° (Epoch: 19 October)

Date Brightness Start Highest point End Pass type
(mag) Time Alt. Az. Time Alt. Az. Time Alt. Az.
19 Oct - 10:45:40 10° SW 10:48:54 75° NW 10:52:09 10° NE daylight
19 Oct - 18:54:11 10° NW 18:57:27 86° SW 19:00:43 10° SE daylight
20 Oct - 09:53:34 10° SSW 09:56:40 42° SE 09:59:45 10° ENE daylight
20 Oct - 11:31:29 10° WNW 11:33:17 14° NW 11:35:05 10° N daylight
20 Oct - 18:02:02 10° NNW 18:05:08 39° NE 18:08:14 10° ESE daylight
20 Oct - 19:40:03 10° WSW 19:41:17 12° SW 19:42:32 10° SSW visible
21 Oct - 09:02:08 10° S 09:04:29 19° SE 09:06:50 10° E daylight
21 Oct - 10:38:02 10° W 10:40:48 25° NW 10:43:34 10° NNE daylight
21 Oct - 17:10:13 10° NNW 17:12:43 20° NE 17:15:12 10° E daylight
21 Oct - 18:46:22 10° WNW 18:49:09 26° SW 18:51:55 10° S daylight
22 Oct - 09:45:14 10° WSW 09:48:24 55° NW 09:51:36 10° NE daylight
22 Oct - 16:19:06 10° NNE 16:20:11 11° NNE 16:21:14 10° NE daylight
22 Oct - 17:53:41 10° NW 17:56:56 63° SW 18:00:09 10° SSE daylight
23 Oct - 08:52:55 10° SSW 08:56:06 59° SE 08:59:18 10° NE daylight
23 Oct - 10:31:40 10° NW 10:32:49 11° NNW 10:33:59 10° NNW daylight
23 Oct - 17:01:24 10° NW 17:04:36 52° NE 17:07:47 10° ESE daylight
24 Oct - 08:01:09 10° S 08:03:51 24° SE 08:06:34 10° ENE daylight
24 Oct - 09:37:46 10° W 09:40:16 20° NW 09:42:47 10° NNE daylight
24 Oct - 16:09:25 10° NNW 16:12:10 24° NE 16:14:55 10° E daylight
24 Oct - 17:46:04 10° WNW 17:48:30 20° SW 17:50:57 10° S daylight
25 Oct - 07:10:42 10° SE 07:11:40 11° SE 07:12:39 10° ESE visible
25 Oct - 08:44:43 10° WSW 08:47:49 41° NW 08:50:55 10° NNE daylight
25 Oct - 15:17:54 10° N 15:19:38 14° NE 15:21:22 10° ENE daylight
25 Oct - 16:53:08 10° WNW 16:56:17 45° SW 16:59:24 10° SSE daylight
26 Oct - 07:52:12 10° SW 07:55:26 82° SE 07:58:41 10° NE daylight
26 Oct - 16:00:41 10° NW 16:03:56 71° NE 16:07:11 10° SE daylight
27 Oct - 07:00:11 10° SSW 07:03:07 32° SE 07:06:04 10° ENE visible
27 Oct - 08:37:27 10° W 08:39:39 17° NW 08:41:50 10° N daylight
27 Oct - 15:08:34 10° NNW 15:11:31 31° NE 15:14:27 10° ESE daylight
27 Oct - 16:45:47 10° W 16:47:45 15° SW 16:49:42 10° SSW daylight
28 Oct - 06:09:01 10° SSE 06:10:53 15° SE 06:12:46 10° E visible
28 Oct - 07:44:10 10° WSW 07:47:07 31° NW 07:50:03 10° NNE daylight
28 Oct - 14:16:48 10° N 14:18:58 16° NE 14:21:08 10° ENE daylight
28 Oct - 15:52:31 10° WNW 15:55:30 33° SW 15:58:28 10° SSE daylight
